VE3ZEB-1 Weather Reports


Display with metric or nautical units.
time (UTC)temp
F
wind
direction
speed
MPH
gust
MPH
rain 1hr
in
rain 24hr
in
rain mn
in
humidity
%
barometer
mb
20260904060523 67 134 1.0 2.0 0.00 0.30 0.00 99 679.9
20260904055544 67 141 1.0 3.0 0.00 0.30 0.00 99 679.9
20260904054524 67 137 1.0 3.0 0.00 0.30 0.00 99 679.9
20260904053544 68 137 1.0 3.0 0.00 0.30 0.00 99 679.9
20260904052526 68 119 2.0 5.0 0.00 0.30 0.00 99 679.9
20260904051556 68 133 2.0 3.0 0.00 0.30 0.00 99 679.9
20260904050509 68 132 1.0 3.0 0.00 0.30 0.00 99 679.9
20260904045524 68 116 2.0 4.0 0.00 0.30 0.00 99 679.9
20260904044525 68 124 2.0 4.0 0.00 0.30 0.00 99 679.9
20260904043525 68 133 1.0 4.0 0.00 0.30 0.00 99 679.9
20260904042525 68 122 1.0 5.0 0.00 0.30 0.00 99 679.9
20260904041526 68 123 1.0 2.0 0.00 0.30 0.00 99 679.9
20260904040525 68 116 1.0 2.0 0.00 0.30 0.00 99 679.9
20260904035545 69 124 1.0 3.0 0.00 0.30 0.30 99 679.9
20260904034526 69 132 1.0 2.0 0.00 0.30 0.30 99 679.9
20260904033526 69 129 1.0 2.0 0.00 0.30 0.30 99 679.9
20260904032546 69 129 1.0 3.0 0.00 0.30 0.30 99 679.9
20260904031526 69 124 2.0 3.0 0.00 0.30 0.30 99 679.9
20260904030534 69 126 1.0 3.0 0.00 0.30 0.30 99 679.9
20260904025526 69 120 2.0 3.0 0.00 0.30 0.30 99 679.9
20260904024526 69 129 1.0 2.0 0.00 0.30 0.30 99 679.9
20260904023512 69 118 2.0 3.0 0.00 0.30 0.30 99 679.9
20260904022511 69 0.0 0.0 0.00 0.30 0.30 99 679.9
20260904021512 69 0.0 0.0 0.00 0.30 0.30 99 679.9
20260904020527 69 138 1.0 2.0 0.00 0.30 0.30 99 679.9
20260904015512 70 82 0.0 2.0 0.00 0.34 0.30 99 679.9
20260904014532 70 75 1.0 3.0 0.00 0.45 0.30 99 679.9
20260904013512 70 80 1.0 3.0 0.00 0.54 0.30 99 679.9
20260904012527 70 68 1.0 2.0 0.00 0.54 0.30 99 679.9
20260904011527 70 87 2.0 3.0 0.00 0.65 0.30 99 679.9
20260904010554 70 112 1.0 2.0 0.00 0.65 0.30 99 679.9
20260904005548 70 92 1.0 2.0 0.00 0.65 0.30 99 679.9
20260904004528 70 59 1.0 3.0 0.00 0.65 0.30 99 679.9
20260904003528 70 18 2.0 3.0 0.00 0.65 0.30 99 679.9
20260904002550 71 0.0 0.0 0.00 0.65 0.30 99 680.0
20260904001548 71 138 1.0 3.0 0.00 0.66 0.30 99 680.0
20260904000528 71 149 1.0 2.0 0.00 0.67 0.30 99 680.0
20260903235554 71 127 1.0 2.0 0.00 0.70 0.30 99 680.0
20260903234549 71 145 1.0 3.0 0.00 0.70 0.30 99 680.0
20260903233528 71 79 0.0 2.0 0.00 0.70 0.30 99 680.0
20260903232443 72 137 1.0 2.0 0.00 0.70 0.30 99 680.0
20260903231514 72 125 1.0 2.0 0.00 0.70 0.30 99 680.0
20260903230529 72 140 0.0 2.0 0.00 0.70 0.30 99 680.0
20260903225445 72 220 2.0 4.0 0.01 0.70 0.30 99 680.0
20260903224514 72 235 2.0 5.0 0.02 0.70 0.30 99 680.0
20260903223529 72 196 1.0 2.0 0.03 0.70 0.30 99 680.0
20260903222550 73 169 2.0 3.0 0.06 0.70 0.30 99 680.0
20260903221515 73 34 2.0 4.0 0.13 0.70 0.30 99 680.0
20260903220515 73 13 2.0 4.0 0.17 0.70 0.30 99 680.0
20260903215602 73 98 2.0 5.0 0.18 0.75 0.30 99 680.0
20260903214446 74 109 2.0 4.0 0.21 1.16 0.28 99 680.0
20260903213516 74 115 3.0 5.0 0.24 1.47 0.27 99 680.1
20260903212535 75 147 1.0 3.0 0.23 1.52 0.24 99 680.1
20260903211516 75 122 2.0 5.0 0.17 1.45 0.17 99 680.1
20260903210516 76 135 2.0 4.0 0.13 1.40 0.13 99 680.1
20260903205516 76 132 3.0 6.0 0.11 1.39 0.11 99 680.1
20260903204536 77 129 4.0 6.0 0.07 1.35 0.07 99 680.1
20260903203516 78 143 2.0 4.0 0.03 1.31 0.03 99 680.1
20260903202450 78 111 2.0 3.0 0.01 1.29 0.01 99 680.2
20260903201516 79 124 1.0 3.0 0.00 1.38 0.00 99 680.2
20260903200447 79 161 1.0 1.0 0.00 1.74 0.00 99 680.2
20260903195517 80 155 0.0 1.0 0.00 1.74 0.00 99 680.2
20260903194517 80 153 1.0 2.0 0.00 1.74 0.00 99 680.2
20260903193517 80 159 1.0 2.0 0.00 1.74 0.00 99 680.2
20260903192447 81 185 1.0 2.0 0.00 1.74 0.00 99 680.2
20260903191554 81 156 1.0 2.0 0.00 1.74 0.00 99 680.2
20260903190517 81 132 1.0 2.0 0.00 1.74 0.00 99 680.2
20260903185448 82 148 2.0 4.0 0.00 1.74 0.00 99 680.2
20260903184518 82 150 1.0 4.0 0.00 1.74 0.00 99 680.2
20260903183455 82 145 2.0 4.0 0.00 1.74 0.00 99 680.2
20260903182518 82 114 3.0 5.0 0.00 1.74 0.00 99 680.2
20260903181519 83 105 2.0 5.0 0.00 1.74 0.00 99 680.2
20260903180518 83 128 2.0 4.0 0.00 1.74 0.00 99 680.3
20260903175449 84 94 3.0 5.0 0.00 1.74 0.00 99 680.3
20260903174518 84 122 3.0 5.0 0.00 1.74 0.00 99 680.3
20260903173519 84 104 3.0 5.0 0.00 1.75 0.00 99 680.3
20260903172519 84 94 4.0 8.0 0.00 1.75 0.00 99 680.3
20260903171519 84 102 2.0 4.0 0.00 1.75 0.00 99 680.3
20260903170519 84 100 2.0 5.0 0.00 1.75 0.00 99 680.3
20260903165519 84 120 2.0 6.0 0.00 1.75 0.00 99 680.3
20260903164519 84 56 2.0 5.0 0.00 1.75 0.00 99 680.3
20260903163540 83 46 2.0 4.0 0.00 1.75 0.00 99 680.2
20260903162437 0 0.0 0.0 0.00 1.75 0.00
20260903161520 84 72 2.0 5.0 0.00 1.75 0.00 99 680.3
20260903160437 83 54 2.0 3.0 0.00 1.75 0.00 99 680.2
20260903155520 83 69 1.0 2.0 0.00 1.75 0.00 99 680.2
20260903154520 83 163 1.0 3.0 0.00 1.75 0.00 99 680.2
20260903153520 83 225 1.0 3.0 0.00 1.75 0.00 99 680.2
20260903152540 81 239 2.0 3.0 0.00 1.75 0.00 99 680.2
20260903151520 80 142 0.0 1.0 0.00 1.75 0.00 99 680.2
20260903150521 79 119 2.0 3.0 0.00 1.75 0.00 99 680.2
20260903145521 79 358 1.0 2.0 0.00 1.75 0.00 99 680.1
20260903144511 77 347 1.0 4.0 0.00 1.75 0.00 99 680.1
20260903143521 76 347 1.0 4.0 0.00 1.75 0.00 99 680.1
20260903142438 75 357 2.0 6.0 0.00 1.75 0.00 99 680.0
20260903141509 73 310 4.0 5.0 0.00 1.75 0.00 99 680.0
20260903140521 73 293 4.0 6.0 0.00 1.75 0.00 99 680.0
20260903135522 72 285 4.0 4.0 0.00 1.75 0.00 99 680.0
20260903134439 71 288 4.0 5.0 0.00 1.75 0.00 99 680.0
20260903133522 71 288 4.0 5.0 0.00 1.75 0.00 99 680.0
20260903132522 70 288 4.0 5.0 0.00 1.75 0.00 99 679.9
20260903131522 69 285 4.0 5.0 0.00 1.75 0.00 99 679.9
20260903130522 69 283 4.0 4.0 0.00 1.75 0.00 99 679.9
20260903125522 68 279 3.0 4.0 0.00 1.75 0.00 99 679.9
20260903124639 68 280 3.0 4.0 0.00 1.75 0.00 99 679.9
20260903123523 68 297 3.0 4.0 0.00 1.75 0.00 99 679.9
20260903122440 67 359 1.0 3.0 0.00 1.75 0.00 99 679.9
20260903121523 67 35 2.0 3.0 0.00 1.75 0.00 99 679.9
20260903120523 67 45 1.0 2.0 0.00 1.75 0.00 99 679.9
20260903115523 66 37 2.0 3.0 0.00 1.75 0.00 99 679.9
20260903114453 66 46 1.0 2.0 0.00 1.75 0.00 99 679.9
20260903113454 66 352 2.0 3.0 0.00 1.75 0.00 99 679.9
20260903112454 66 254 1.0 2.0 0.00 1.75 0.00 99 679.9
20260903111534 66 53 1.0 1.0 0.00 1.75 0.00 99 679.9
20260903110524 66 49 1.0 2.0 0.00 1.75 0.00 99 679.9
20260903105501 66 48 1.0 2.0 0.00 1.75 0.00 99 679.9
20260903104524 66 50 1.0 2.0 0.00 1.75 0.00 99 679.9
20260903103442 0 0.0 0.0 0.00 1.75 0.00
20260903102524 65 15 3.0 4.0 0.00 1.75 0.00 99 679.9
20260903101454 65 43 2.0 3.0 0.00 1.75 0.00 99 679.9
20260903100545 66 32 2.0 3.0 0.00 1.75 0.00 99 679.9
20260903095525 66 28 2.0 3.0 0.00 1.75 0.00 99 679.9
20260903094525 66 49 1.0 2.0 0.00 1.75 0.00 99 679.9
20260903093545 66 51 1.0 1.0 0.00 1.75 0.00 99 679.9
20260903092525 66 334 2.0 3.0 0.00 1.75 0.00 99 679.9
20260903091546 66 244 1.0 3.0 0.00 1.75 0.00 99 679.9
20260903090526 66 226 1.0 2.0 0.00 1.75 0.00 99 679.9
20260903085456 66 52 1.0 2.0 0.00 1.75 0.00 99 679.9
20260903084546 66 53 1.0 2.0 0.00 1.75 0.00 99 679.9
20260903083526 66 235 1.0 2.0 0.00 1.75 0.00 99 679.9
20260903082526 66 56 1.0 1.0 0.00 1.75 0.00 99 679.9
20260903081457 66 50 1.0 3.0 0.00 1.75 0.00 99 679.9
20260903080527 66 51 2.0 2.0 0.00 1.75 0.00 99 679.9
20260903075546 66 54 2.0 2.0 0.00 1.75 0.00 99 679.9
20260903074527 66 53 2.0 2.0 0.00 1.75 0.00 99 679.9
20260903073527 67 58 2.0 2.0 0.00 1.75 0.00 99 679.9
20260903072500 67 53 2.0 3.0 0.00 1.75 0.00 99 679.9
20260903071607 67 56 2.0 2.0 0.00 1.75 0.00 99 679.9
20260903070528 67 33 2.0 3.0 0.00 1.75 0.00 99 679.9
20260903065527 67 47 2.0 2.0 0.00 1.75 0.00 99 679.9
20260903064445 67 51 2.0 3.0 0.00 1.75 0.00 99 679.9
20260903063528 67 50 2.0 2.0 0.00 1.75 0.00 99 679.9
20260903062458 68 49 2.0 3.0 0.00 1.75 0.00 99 679.9
20260903061601 68 54 2.0 2.0 0.00 1.75 0.00 99 679.9